Location: Ailly
(50.0793°N, 1.9944°E)
Time: 23:50:04
(UTC+00:00)

Cosmos 1833 Rocket - Pass Details

Date: 15 January 2026
Orbit: 832 x 838 km, 71.0° (Epoch: 16 February)

Event Time Altitude Azimuth Distance (km) Brightness Sun altitude
Exits shadow 05:09:05 49° 225° (SW) 1,066 2.9 -24.3°
Drops below altitude 10° 05:13:51 10° 174° (S) 2,439 5.2 -23.6°
Sets 05:16:19 0° 170° (S) 3,368 6.0 -23.2°
